Location: Lane
(33.5226°N, 79.8788°W)
Time: 02:41:36
(UTC+00:00)

Tiros 1 despin weight - Pass Details

Date: 04 October 2022
Orbit: 590 x 637 km, 48.2° (Epoch: 30 November)

Event Time Altitude Azimuth Distance (km) Brightness Sun altitude
Rises 23:40:01 0° 308° (NW) 2,868 ? -9.2°
Reaches altitude 10° 23:43:37 10° 338° (NNW) 1,976 ? -10.0°
Maximum altitude 23:45:37 13° 4° (N) 1,813 ? -10.4°
Drops below altitude 10° 23:47:39 10° 31° (NNE) 1,990 ? -10.8°
Enters shadow 23:49:15 - 47° (NE) 2,328 ? -11.1°
Sets 23:51:18 0° 60° (ENE) 2,908 - -11.6°
